Date String (YYYY-MM-DD hh:mm:ss) UTC,Instrument flags,Ambient pressure (hPa),Sample flow (lpm),Bypass flow (lpm),Sample temperature (°C),Ambient temperature (°C),ASC tube jacket temperature (°C),LED temperature (°C),Box temperature (°C),Sample RH (%),Span deviation,Mass concentration (μg/m³),Mass concentration (μg/m³),Mass concentration (μg/m³)
DateTimeUTC,F1_M11,P_M11,Q1_M11,Q2_M11,T1_M11,T2_M11,T3_M11,T4_M11,T5_M11,U1_M11,ZSPAN_M11,X0_M11,X2_M11,X1_M11
2022-10-01 11:00:00,,0827.0,4.99,0.00,29.9,28.4,00.0,38.7,31.7,25.5,0000.0,0002.89,0001.64,0001.27
2022-10-01 11:01:00,,0826.9,5.00,0.00,30.0,28.4,00.0,38.7,31.7,25.3,0000.0,0002.92,0001.65,0001.27
2022-10-01 11:02:00,,0826.9,5.01,0.00,30.0,28.4,00.0,38.7,31.8,25.1,0000.0,0002.83,0001.65,0001.27
2022-10-01 11:03:00,,0826.9,4.99,0.00,30.0,28.4,00.0,38.7,31.8,25.0,0000.0,0002.81,0001.63,0001.26
2022-10-01 11:04:00,,0826.9,4.99,0.00,30.0,28.4,00.0,38.7,31.8,24.9,0000.0,0002.91,0001.61,0001.26
2022-10-01 11:05:00,,0826.9,5.00,0.00,30.0,28.4,00.0,38.7,31.8,24.8,0000.0,0002.90,0001.61,0001.26
2022-10-01 11:06:00,,0826.9,5.00,0.00,30.0,28.4,00.0,38.7,31.8,24.7,0000.0,0002.84,0001.60,0001.25
2022-10-01 11:07:00,,0826.9,5.01,0.00,30.0,28.4,00.0,38.7,31.8,24.6,0000.0,0003.02,0001.65,0001.25
2022-10-01 11:08:00,,0826.9,4.99,0.00,30.0,28.4,00.0,38.7,31.8,24.5,0000.0,0003.07,0001.68,0001.25
2022-10-01 11:09:00,,0826.9,5.00,0.00,30.0,28.5,00.0,38.7,31.8,24.3,0000.0,0003.01,0001.68,0001.24
2022-10-01 11:10:00,,0827.0,5.01,0.00,30.0,28.5,00.0,38.7,31.8,24.3,0000.0,0002.90,0001.68,0001.25
2022-10-01 11:11:00,,0827.0,5.01,0.00,30.0,28.4,00.0,38.7,31.8,24.3,0000.0,0002.91,0001.69,0001.25
2022-10-01 11:12:00,,0826.8,5.00,0.00,30.0,28.4,00.0,38.7,31.8,24.3,0000.0,0002.80,0001.65,0001.26
2022-10-01 11:13:00,,0826.8,5.00,0.00,30.0,28.4,00.0,38.7,31.8,24.3,0000.0,0002.80,0001.65,0001.27
2022-10-01 11:14:00,,0826.8,5.00,0.00,30.0,28.4,00.0,38.7,31.8,24.2,0000.0,0002.84,0001.66,0001.26
2022-10-01 11:15:00,,0826.7,5.00,0.00,30.0,28.4,00.0,38.8,31.8,24.0,0000.0,0002.73,0001.65,0001.26
2022-10-01 11:16:00,,0826.7,5.00,0.00,30.0,28.4,00.0,38.8,31.8,23.9,0000.0,0002.75,0001.66,0001.26
2022-10-01 11:17:00,,0826.7,5.00,0.00,30.0,28.4,00.0,38.8,31.8,23.8,0000.0,0003.05,0001.65,0001.26
2022-10-01 11:18:00,,0826.7,4.99,0.00,30.0,28.5,00.0,38.8,31.8,23.8,0000.0,0003.02,0001.61,0001.24
2022-10-01 11:19:00,,0826.6,5.00,0.00,30.0,28.5,00.0,38.8,31.8,23.7,0000.0,0002.99,0001.60,0001.23
2022-10-01 11:20:00,,0826.7,5.00,0.00,30.0,28.5,00.0,38.8,31.9,23.7,0000.0,0003.04,0001.61,0001.24
2022-10-01 11:21:00,,0826.7,4.99,0.00,30.0,28.5,00.0,38.8,31.9,23.6,0000.0,0003.06,0001.61,0001.24
2022-10-01 11:22:00,,0826.6,5.00,0.00,30.0,28.5,00.0,38.8,31.9,23.5,0000.0,0003.05,0001.60,0001.24
2022-10-01 11:23:00,,0826.5,5.01,0.00,30.0,28.5,00.0,38.8,31.9,23.1,0000.0,0003.15,0001.60,0001.22
2022-10-01 11:24:00,,0826.5,5.00,0.00,30.0,28.5,00.0,38.8,31.9,22.9,0000.0,0003.16,0001.59,0001.19
2022-10-01 11:25:00,,0826.5,5.00,0.00,30.0,28.6,00.0,38.8,31.9,22.8,0000.0,0003.00,0001.54,0001.18
2022-10-01 11:26:00,,0826.5,5.01,0.00,30.0,28.6,00.0,38.8,31.9,22.6,0000.0,0003.04,0001.57,0001.17
2022-10-01 11:27:00,,0826.5,5.00,0.00,30.0,28.6,00.0,38.8,31.9,22.6,0000.0,0003.01,0001.56,0001.16
2022-10-01 11:28:00,,0826.5,4.99,0.00,30.1,28.6,00.0,38.8,31.9,22.8,0000.0,0002.74,0001.55,0001.16
2022-10-01 11:29:00,,0826.5,5.00,0.00,30.1,28.6,00.0,38.8,31.9,23.0,0000.0,0002.64,0001.55,0001.16
2022-10-01 11:30:00,,0826.5,5.01,0.00,30.1,28.6,00.0,38.8,31.9,23.1,0000.0,0002.53,0001.53,0001.17
2022-10-01 11:31:00,,0826.5,4.99,0.00,30.1,28.6,00.0,38.8,31.9,23.0,0000.0,0002.49,0001.54,0001.18
2022-10-01 11:32:00,,0826.5,5.00,0.00,30.1,28.6,00.0,38.8,31.9,23.0,0000.0,0002.53,0001.56,0001.17
2022-10-01 11:33:00,,0826.5,5.01,0.00,30.1,28.6,00.0,38.8,31.9,22.9,0000.0,0002.56,0001.55,0001.16
2022-10-01 11:34:00,,0826.5,5.00,0.00,30.1,28.7,00.0,38.8,31.9,22.8,0000.0,0002.58,0001.57,0001.17
2022-10-01 11:35:00,,0826.5,4.99,0.00,30.1,28.7,00.0,38.8,31.9,22.1,0000.0,0002.50,0001.56,0001.16
2022-10-01 11:36:00,,0826.5,5.01,0.00,30.1,28.7,00.0,38.8,32.0,21.7,0000.0,0002.54,0001.57,0001.15
2022-10-01 11:37:00,,0826.5,5.00,0.00,30.1,28.6,00.0,38.8,31.9,21.2,0000.0,0002.56,0001.56,0001.14
2022-10-01 11:38:00,,0826.5,4.99,0.00,30.1,28.6,00.0,38.8,32.0,21.8,0000.0,0002.58,0001.55,0001.14
2022-10-01 11:39:00,,0826.5,5.00,0.00,30.1,28.7,00.0,38.8,32.0,22.3,0000.0,0002.76,0001.57,0001.14
2022-10-01 11:40:00,,0826.5,5.00,0.00,30.1,28.6,00.0,38.9,32.0,21.7,0000.0,0003.18,0001.56,0001.12
2022-10-01 11:41:00,,0826.5,5.00,0.00,30.1,28.6,00.0,38.9,31.9,22.4,0000.0,0003.22,0001.56,0001.11
2022-10-01 11:42:00,,0826.6,4.99,0.00,30.1,28.6,00.0,38.9,31.9,23.0,0000.0,0003.22,0001.57,0001.12
2022-10-01 11:43:00,,0826.6,5.00,0.00,30.1,28.6,00.0,38.9,31.9,23.2,0000.0,0003.17,0001.56,0001.14
2022-10-01 11:44:00,,0826.7,5.01,0.00,30.1,28.6,00.0,38.9,31.9,23.2,0000.0,0003.20,0001.57,0001.14
2022-10-01 11:45:00,,0826.7,5.01,0.00,30.1,28.5,00.0,38.9,31.9,23.2,0000.0,0003.29,0001.57,0001.15
2022-10-01 11:46:00,,0826.7,5.00,0.00,30.1,28.5,00.0,38.9,31.9,23.1,0000.0,0003.33,0001.59,0001.16
2022-10-01 11:47:00,,0826.7,4.99,0.00,30.1,28.5,00.0,38.9,31.9,23.1,0000.0,0003.38,0001.61,0001.18
2022-10-01 11:48:00,,0826.7,5.00,0.00,30.1,28.5,00.0,38.9,31.9,23.0,0000.0,0004.54,0001.64,0001.19
2022-10-01 11:49:00,,0826.6,5.00,0.00,30.1,28.4,00.0,38.9,31.9,22.9,0000.0,0004.68,0001.68,0001.21
2022-10-01 11:50:00,,0826.7,5.00,0.00,30.1,28.4,00.0,38.9,31.9,22.8,0000.0,0004.50,0001.67,0001.21
2022-10-01 11:51:00,,0826.7,5.00,0.00,30.0,28.4,00.0,38.8,31.8,22.8,0000.0,0004.04,0001.67,0001.22
2022-10-01 11:52:00,,0826.7,4.99,0.00,30.0,28.4,00.0,38.8,31.8,22.7,0000.0,0004.06,0001.68,0001.23
2022-10-01 11:53:00,,0826.6,5.01,0.00,30.0,28.4,00.0,38.8,31.8,22.7,0000.0,0004.03,0001.65,0001.21
2022-10-01 11:54:00,,0826.5,5.01,0.00,30.0,28.4,00.0,38.8,31.8,22.7,0000.0,0003.90,0001.59,0001.19
2022-10-01 11:55:00,,0826.7,4.98,0.00,30.0,28.4,00.0,38.8,31.8,22.6,0000.0,0003.88,0001.59,0001.20
2022-10-01 11:56:00,,0826.5,4.99,0.00,30.0,28.4,00.0,38.8,31.9,22.6,0000.0,0003.67,0001.55,0001.19
2022-10-01 11:57:00,,0826.5,5.01,0.00,30.0,28.4,00.0,38.8,31.8,22.6,0000.0,0003.72,0001.54,0001.20
2022-10-01 11:58:00,,0826.5,5.00,0.00,30.0,28.4,00.0,38.8,31.8,22.4,0000.0,0003.63,0001.52,0001.21
2022-10-01 11:59:00,,0826.5,4.99,0.00,30.0,28.4,00.0,38.8,31.8,22.3,0000.0,0002.48,0001.51,0001.20
